DW8052 Weather Reports


time (UTC)temp
C
wind
direction
speed
KPH
gust
KPH
rain 1hr
cm
rain 24hr
cm
rain mn
cm
humidity
%
barometer
mb
20260504194717 15 276 19.3 24.1 0.00 0.71 0.00 61 1016.7
20260504194217 15 277 19.3 27.4 0.00 0.71 0.00 61 1016.8
20260504193717 16 275 19.3 25.7 0.00 0.71 0.00 61 1016.8
20260504193217 16 271 16.1 20.9 0.00 0.71 0.00 61 1016.8
20260504192717 16 272 16.1 20.9 0.00 0.71 0.00 60 1017.0
20260504192217 16 269 16.1 20.9 0.00 0.71 0.00 60 1016.9
20260504191717 16 266 17.7 22.5 0.00 0.71 0.00 59 1017.1
20260504191217 16 268 17.7 24.1 0.00 0.71 0.00 60 1016.7
20260504190717 16 263 20.9 27.4 0.00 0.71 0.00 60 1016.6
20260504190217 16 255 22.5 29.0 0.00 0.71 0.00 60 1016.8
20260504185717 16 248 22.5 32.2 0.00 0.71 0.00 59 1016.6
20260504185217 16 253 29.0 33.8 0.00 0.71 0.00 59 1016.4
20260504184717 16 246 29.0 38.6 0.00 0.71 0.00 59 1016.3
20260504184217 16 252 27.4 37.0 0.00 0.71 0.00 59 1016.0
20260504183716 16 250 29.0 38.6 0.00 0.71 0.00 59 1016.0
20260504183217 16 255 22.5 35.4 0.00 0.71 0.00 59 1016.0
20260504182717 16 257 25.7 38.6 0.00 0.71 0.00 59 1016.1
20260504182217 16 255 25.7 37.0 0.00 0.71 0.00 59 1016.1
20260504181717 16 250 24.1 38.6 0.00 0.71 0.00 59 1015.9
20260504181217 16 259 25.7 37.0 0.00 0.71 0.00 59 1015.8
20260504180716 16 254 27.4 38.6 0.00 0.71 0.00 59 1015.9
20260504180217 16 253 29.0 38.6 0.00 0.71 0.00 59 1016.0
20260504175716 16 250 25.7 40.2 0.00 0.71 0.00 59 1015.9
20260504175217 16 258 27.4 35.4 0.00 0.71 0.00 59 1015.9
20260504174217 16 262 27.4 38.6 0.00 0.71 0.00 58 1015.7
20260504173717 16 258 25.7 35.4 0.00 0.71 0.00 59 1015.9
20260504173217 16 258 24.1 38.6 0.00 0.71 0.00 59 1015.8
20260504172717 16 263 29.0 38.6 0.00 0.71 0.00 59 1015.9
20260504172217 16 259 27.4 33.8 0.00 0.71 0.00 60 1015.7
20260504171717 16 259 22.5 33.8 0.00 0.71 0.00 60 1015.9
20260504171216 17 259 24.1 38.6 0.00 0.71 0.00 60 1015.9
20260504170717 17 255 25.7 38.6 0.00 0.71 0.00 60 1015.7
20260504170216 17 253 22.5 32.2 0.00 0.71 0.00 60 1015.7
20260504150716 17 252 20.9 27.4 0.00 0.71 0.00 63 1016.0
20260504150216 17 246 24.1 32.2 0.00 0.71 0.00 63 1015.9
20260504140716 17 243 17.7 24.1 0.00 0.71 0.00 68 1015.7
20260504140216 17 247 19.3 27.4 0.00 0.71 0.00 69 1015.7
20260504130716 18 232 14.5 19.3 0.00 0.71 0.71 81 1015.9
20260504130216 18 242 14.5 20.9 0.00 0.71 0.71 81 1015.8
20260504120216 19 312 12.9 14.5 0.00 0.71 0.71 73 1015.9
20260504110716 20 331 14.5 19.3 0.00 0.71 0.71 71 1015.5
20260504110216 20 334 14.5 19.3 0.00 0.71 0.71 71 1015.5
20260504100216 20 344 14.5 20.9 0.00 0.71 0.71 71 1014.7
20260504081716 20 348 14.5 20.9 0.00 0.71 0.71 77 1014.5
20260504081215 20 351 14.5 19.3 0.00 0.71 0.71 77 1014.5
20260504080216 20 339 12.9 19.3 0.00 0.71 0.71 77 1014.4
20260504070215 20 0 11.3 20.9 0.00 0.71 0.71 77 1014.0
20260504060216 19 353 16.1 24.1 0.00 0.71 0.71 77 1014.1
20260504050715 19 347 14.5 20.9 0.00 0.71 0.71 79 1014.4
20260504050215 19 348 14.5 22.5 0.00 0.71 0.71 79 1014.1
20260504045716 19 347 14.5 25.7 0.00 0.71 0.71 79 1014.2
20260504044715 19 359 16.1 22.5 0.00 0.71 0.71 81 1014.1
20260504044216 19 1 11.3 20.9 0.00 0.71 0.71 82 1014.3
20260504042715 18 359 9.7 16.1 0.03 0.71 0.71 88 1014.4
20260504042215 18 2 4.8 12.9 0.03 0.71 0.71 89 1014.3
20260504041715 18 355 9.7 16.1 0.05 0.71 0.71 89 1014.6
20260504041216 18 2 11.3 19.3 0.10 0.71 0.71 90 1014.4
20260504040715 17 16 12.9 19.3 0.13 0.71 0.71 90 1014.5
20260504040216 17 23 14.5 20.9 0.18 0.71 0.71 90 1014.3
20260504035715 17 14 16.1 22.5 0.20 0.71 0.71 90 1014.4
20260504035215 17 2 17.7 24.1 0.25 0.71 0.71 90 1014.7
20260504034715 17 6 17.7 24.1 0.30 0.71 0.71 91 1014.7
20260504034215 17 14 19.3 25.7 0.30 0.71 0.71 91 1014.5
20260504033715 17 10 17.7 24.1 0.30 0.71 0.71 91 1015.0
20260504033216 17 4 14.5 25.7 0.30 0.69 0.69 91 1015.0
20260504032716 17 1 19.3 27.4 0.33 0.69 0.69 91 1015.3
20260504032215 17 2 20.9 27.4 0.33 0.69 0.69 91 1015.2
20260504031715 17 3 17.7 29.0 0.33 0.66 0.66 91 1015.4
20260504031216 17 354 12.9 24.1 0.30 0.61 0.61 91 1015.6
20260504030715 17 5 19.3 25.7 0.30 0.58 0.58 91 1015.6
20260504030215 17 0 17.7 24.1 0.28 0.53 0.53 90 1015.9
20260504025215 17 353 16.1 22.5 0.20 0.46 0.46 90 1016.1
20260504024215 17 10 14.5 22.5 0.18 0.41 0.41 90 1016.1
20260504023715 17 7 12.9 19.3 0.20 0.41 0.41 90 1016.3
20260504023215 17 0 11.3 14.5 0.23 0.38 0.38 89 1016.3
20260504022715 17 338 11.3 14.5 0.23 0.36 0.36 89 1016.5
20260504021715 17 333 4.8 8.0 0.25 0.33 0.33 89 1016.5
20260504020715 17 312 9.7 14.5 0.20 0.28 0.28 88 1016.9
20260504020215 17 313 9.7 11.3 0.20 0.25 0.25 88 1017.1
20260504015715 17 328 9.7 11.3 0.20 0.25 0.25 87 1017.1
20260504015215 17 325 6.4 11.3 0.20 0.25 0.25 87 1017.1
20260504014715 17 320 8.0 11.3 0.18 0.23 0.23 86 1017.2
20260504013715 17 323 8.0 12.9 0.15 0.20 0.20 86 1017.3
20260504013214 17 330 8.0 12.9 0.10 0.15 0.15 85 1017.5
20260504012715 17 329 11.3 12.9 0.08 0.13 0.13 85 1017.4
20260504012215 18 346 8.0 11.3 0.05 0.10 0.10 85 1017.5
20260504011715 18 330 8.0 9.7 0.03 0.08 0.08 85 1017.5
20260504011215 18 351 4.8 8.0 0.03 0.08 0.08 85 1017.5
20260504010715 18 298 6.4 12.9 0.05 0.08 0.08 84 1017.5
20260504010215 18 309 8.0 9.7 0.03 0.05 0.05 84 1017.6
20260504005215 18 222 8.0 9.7 0.05 0.05 0.05 84 1017.4
20260504004714 18 220 4.8 8.0 0.05 0.05 0.05 84 1017.4
20260504003214 18 270 0.0 4.8 0.05 0.05 0.05 83 1017.4
20260504002715 18 267 4.8 8.0 0.05 0.05 0.05 84 1017.6
20260504002215 17 281 6.4 9.7 0.05 0.05 0.05 83 1017.4
20260504001715 17 311 4.8 8.0 0.05 0.05 0.05 82 1017.5
20260504001215 17 334 4.8 11.3 0.05 0.05 0.05 82 1017.3
20260503235715 17 337 9.7 14.5 0.00 0.00 0.00 80 1017.8
20260503235215 18 321 11.3 16.1 0.00 0.00 0.00 80 1017.9
20260503234715 18 324 14.5 16.1 0.00 0.00 0.00 80 1017.8
20260503234214 18 298 12.9 20.9 0.00 0.00 0.00 81 1017.7
20260503233715 18 324 17.7 25.7 0.00 0.00 0.00 80 1018.0
20260503232215 18 298 19.3 24.1 0.00 0.00 0.00 81 1018.1
20260503231715 18 290 19.3 24.1 0.00 0.00 0.00 81 1017.9
20260503230715 18 301 14.5 19.3 0.00 0.00 0.00 82 1017.7
20260503230215 18 301 11.3 19.3 0.00 0.00 0.00 82 1017.5
20260503225715 18 300 11.3 16.1 0.00 0.00 0.00 82 1017.6
20260503225214 18 312 12.9 14.5 0.00 0.00 0.00 82 1017.3
20260503224715 18 327 11.3 14.5 0.00 0.00 0.00 82 1017.4
20260503224215 18 325 9.7 14.5 0.00 0.00 0.00 82 1017.2
20260503223715 18 332 9.7 12.9 0.00 0.00 0.00 83 1017.1
20260503223214 18 335 8.0 11.3 0.00 0.00 0.00 83 1016.9
20260503222715 18 328 6.4 9.7 0.00 0.00 0.00 84 1017.1
20260503222215 18 315 9.7 11.3 0.00 0.00 0.00 84 1016.9
20260503221714 18 320 6.4 9.7 0.00 0.00 0.00 84 1016.8
20260503220714 17 301 9.7 14.5 0.00 0.00 0.00 83 1016.8
20260503220215 17 312 8.0 16.1 0.00 0.00 0.00 84 1016.9
20260503215214 17 303 14.5 20.9 0.00 0.00 0.00 83 1017.0
20260503214714 18 299 12.9 19.3 0.00 0.00 0.00 83 1016.9
20260503214214 18 313 8.0 12.9 0.00 0.00 0.00 84 1016.7
20260503213715 18 320 9.7 12.9 0.00 0.00 0.00 83 1016.7
20260503213215 18 323 11.3 14.5 0.00 0.00 0.00 84 1016.7
20260503212715 18 325 11.3 12.9 0.00 0.00 0.00 84 1016.6
20260503212214 17 328 8.0 11.3 0.00 0.00 0.00 83 1016.7
20260503211714 17 323 9.7 12.9 0.00 0.00 0.00 83 1016.5
20260503211214 17 330 9.7 12.9 0.00 0.00 0.00 83 1016.5
20260503210214 17 327 8.0 11.3 0.00 0.00 0.00 83 1016.4
20260503205214 17 315 8.0 9.7 0.00 0.00 0.00 83 1016.3
20260503204715 17 321 9.7 11.3 0.00 0.00 0.00 83 1016.4
20260503204214 17 325 9.7 11.3 0.00 0.00 0.00 83 1016.4
20260503203715 17 322 8.0 11.3 0.00 0.00 0.00 83 1016.4
20260503203214 17 319 6.4 11.3 0.00 0.00 0.00 82 1016.1
20260503202714 17 329 8.0 11.3 0.00 0.00 0.00 82 1016.1
20260503202214 17 323 11.3 12.9 0.00 0.00 0.00 82 1016.0
20260503201214 18 326 8.0 11.3 0.00 0.00 0.00 82 1016.0
20260503200715 18 326 8.0 9.7 0.00 0.00 0.00 82 1015.9
20260503195714 18 329 8.0 9.7 0.00 0.00 0.00 82 1015.9